Вернуться в каталог

SCOUT B-1 R/B

АктивенLEO
NORAD 5438·ROCKET BODY·🇺🇸 United States

Запущен Aug 16, 1971 с Wallops Flight Facility

Loading…

Ближайшие Пролёты (ближайшие 24 часа)

TLE

СвежийSource: Space-Track

Эпоха: Sep 14, 2026, 03:59 UTC

1 05438U 71071B   26257.16613236  .00000473  00000-0  12183-3 0  9998
2 05438  50.1447 179.7395 0097205 290.7518  68.3020 14.63780594892015

Отслеживайте SCOUT B-1 R/B в реальном времени с AllMySat

Download on the App Store